• In Belarus
  • List of Countries
  • For 7 days
  • Water Temperature
  • Weather Map
  • Weather Widgets
  • user-avatar
    Login

    Hourly Weather Akterek

    Today, 18 September, Wednesday

    Time Temperature Precipitation Wind Pressure Humidity
    00:00 +17°C° 0 mm 3 mps 694 mmHg 41%
    01:00 +16°C° 0 mm 3 mps 694 mmHg 42%
    02:00 +16°C° 0 mm 3 mps 693 mmHg 43%
    03:00 +16°C° 0 mm 3 mps 693 mmHg 43%
    04:00 +14°C° 0 mm 3 mps 693 mmHg 43%
    05:00 +14°C° 0 mm 3 mps 693 mmHg 43%
    06:00 +17°C° 0 mm 3 mps 693 mmHg 40%
    07:00 +18°C° 0 mm 3 mps 693 mmHg 37%
    08:00 +20°C° 0 mm 3 mps 693 mmHg 34%
    09:00 +21°C° 0 mm 3 mps 692 mmHg 30%
    10:00 +24°C° 0 mm 3 mps 692 mmHg 27%
    11:00 +26°C° 0 mm 3 mps 692 mmHg 23%
    12:00 +27°C° 0 mm 3 mps 692 mmHg 21%
    13:00 +28°C° 0 mm 3 mps 691 mmHg 18%
    14:00 +29°C° 0 mm 3 mps 691 mmHg 16%
    15:00 +28°C° 0 mm 3 mps 691 mmHg 17%
    16:00 +28°C° 0 mm 3 mps 691 mmHg 19%
    17:00 +28°C° 0 mm 2 mps 691 mmHg 20%
    18:00 +26°C° 0 mm 2 mps 690 mmHg 22%
    19:00 +24°C° 0 mm 2 mps 690 mmHg 25%
    20:00 +22°C° 0 mm 1 mps 690 mmHg 28%
    21:00 +22°C° 0 mm 1 mps 690 mmHg 29%
    22:00 +21°C° 0 mm 1 mps 690 mmHg 29%
    23:00 +21°C° 0 mm 1 mps 690 mmHg 30%

    Tomorrow, 19 September, Thursday

    Time Temperature Precipitation Wind Pressure Humidity
    00:00 +20°C° 0 mm 2 mps 690 mmHg 30%
    01:00 +20°C° 0 mm 2 mps 690 mmHg 30%
    02:00 +20°C° 0 mm 2 mps 690 mmHg 29%
    03:00 +20°C° 0 mm 2 mps 691 mmHg 28%
    04:00 +19°C° 0 mm 2 mps 691 mmHg 28%
    05:00 +19°C° 0 mm 2 mps 691 mmHg 27%
    06:00 +21°C° 0 mm 2 mps 692 mmHg 24%
    07:00 +24°C° 0 mm 2 mps 692 mmHg 22%
    08:00 +26°C° 0 mm 1 mps 693 mmHg 19%
    09:00 +27°C° 0 mm 1 mps 693 mmHg 18%
    10:00 +29°C° 0 mm 1 mps 694 mmHg 16%
    11:00 +30°C° 0 mm 1 mps 694 mmHg 14%
    12:00 +31°C° 0 mm 2 mps 694 mmHg 14%
    13:00 +31°C° 0 mm 2 mps 693 mmHg 13%
    14:00 +32°C° 0 mm 2 mps 693 mmHg 13%
    15:00 +31°C° 0 mm 2 mps 693 mmHg 14%
    16:00 +31°C° 0 mm 1 mps 693 mmHg 16%
    17:00 +30°C° 0 mm 1 mps 694 mmHg 17%
    18:00 +28°C° 0 mm 1 mps 693 mmHg 19%
    19:00 +26°C° 0 mm 1 mps 693 mmHg 21%
    20:00 +24°C° 0 mm 1 mps 693 mmHg 22%
    21:00 +24°C° 0 mm 1 mps 693 mmHg 23%
    22:00 +23°C° 0 mm 1 mps 693 mmHg 23%
    23:00 +23°C° 0 mm 2 mps 692 mmHg 24%

    Day after tomorrow, 20 September, Friday

    Time Temperature Precipitation Wind Pressure Humidity
    00:00 +23°C° 0 mm 2 mps 692 mmHg 24%
    01:00 +21°C° 0 mm 2 mps 692 mmHg 24%
    02:00 +21°C° 0 mm 2 mps 691 mmHg 24%
    03:00 +22°C° 0 mm 1 mps 691 mmHg 24%
    04:00 +21°C° 0 mm 1 mps 692 mmHg 25%
    05:00 +21°C° 0 mm 1 mps 692 mmHg 25%
    06:00 +23°C° 0 mm 1 mps 692 mmHg 24%
    07:00 +25°C° 0 mm 2 mps 693 mmHg 23%
    08:00 +26°C° 0 mm 2 mps 693 mmHg 21%
    09:00 +28°C° 0 mm 2 mps 693 mmHg 20%
    10:00 +29°C° 0 mm 2 mps 693 mmHg 18%
    11:00 +31°C° 0 mm 2 mps 693 mmHg 16%
    12:00 +31°C° 0 mm 2 mps 693 mmHg 16%
    13:00 +32°C° 0 mm 2 mps 692 mmHg 15%
    14:00 +32°C° 0 mm 2 mps 692 mmHg 15%
    15:00 +31°C° 0 mm 2 mps 692 mmHg 16%
    16:00 +31°C° 0 mm 2 mps 692 mmHg 17%
    17:00 +30°C° 0 mm 2 mps 692 mmHg 18%
    18:00 +28°C° 0 mm 2 mps 692 mmHg 21%
    19:00 +26°C° 0 mm 1 mps 692 mmHg 23%
    20:00 +24°C° 0 mm 1 mps 692 mmHg 26%
    21:00 +24°C° 0 mm 1 mps 692 mmHg 27%
    22:00 +23°C° 0 mm 1 mps 692 mmHg 28%
    23:00 +22°C° 0 mm 1 mps 691 mmHg 29%

    21 September, Saturday

    Time Temperature Precipitation Wind Pressure Humidity
    00:00 +22°C° 0 mm 1 mps 691 mmHg 29%
    01:00 +21°C° 0 mm 1 mps 691 mmHg 30%
    02:00 +21°C° 0 mm 1 mps 691 mmHg 31%
    03:00 +21°C° 0 mm 1 mps 691 mmHg 31%
    04:00 +19°C° 0 mm 2 mps 691 mmHg 31%
    05:00 +19°C° 0 mm 2 mps 691 mmHg 31%
    06:00 +21°C° 0 mm 2 mps 691 mmHg 28%
    07:00 +24°C° 0 mm 2 mps 691 mmHg 26%
    08:00 +25°C° 0 mm 2 mps 691 mmHg 24%
    09:00 +27°C° 0 mm 2 mps 691 mmHg 22%
    10:00 +28°C° 0 mm 2 mps 691 mmHg 20%
    11:00 +29°C° 0 mm 3 mps 691 mmHg 19%
    12:00 +30°C° 0 mm 3 mps 691 mmHg 18%
    13:00 +31°C° 0 mm 3 mps 690 mmHg 17%
    14:00 +33°C° 0 mm 4 mps 690 mmHg 16%
    15:00 +32°C° 0 mm 4 mps 690 mmHg 17%
    16:00 +30°C° 0 mm 4 mps 689 mmHg 18%
    17:00 +30°C° 0 mm 4 mps 689 mmHg 20%
    18:00 +28°C° 0 mm 3 mps 689 mmHg 22%
    19:00 +26°C° 0 mm 3 mps 688 mmHg 24%
    20:00 +25°C° 0 mm 2 mps 688 mmHg 26%
    21:00 +24°C° 0 mm 2 mps 688 mmHg 26%
    22:00 +24°C° 0 mm 2 mps 687 mmHg 26%
    23:00 +23°C° 0 mm 2 mps 687 mmHg 26%

    22 September, Sunday

    Time Temperature Precipitation Wind Pressure Humidity
    00:00 +23°C° 0 mm 2 mps 686 mmHg 26%
    01:00 +23°C° 0 mm 1 mps 686 mmHg 26%
    02:00 +22°C° 0 mm 1 mps 686 mmHg 26%
    03:00 +22°C° 0 mm 1 mps 686 mmHg 26%
    04:00 +22°C° 0 mm 1 mps 686 mmHg 26%
    05:00 +21°C° 0 mm 1 mps 686 mmHg 25%
    06:00 +24°C° 0 mm 1 mps 686 mmHg 23%
    07:00 +26°C° 0 mm 1 mps 687 mmHg 21%
    08:00 +28°C° 0 mm 1 mps 688 mmHg 18%
    09:00 +30°C° 0 mm 1 mps 688 mmHg 16%
    10:00 +32°C° 0 mm 1 mps 688 mmHg 15%
    11:00 +34°C° 0 mm 2 mps 688 mmHg 13%
    12:00 +35°C° 0 mm 2 mps 687 mmHg 12%
    13:00 +36°C° 0 mm 2 mps 687 mmHg 11%
    14:00 +36°C° 0 mm 2 mps 687 mmHg 10%
    15:00 +34°C° 0 mm 1 mps 687 mmHg 12%
    16:00 +34°C° 0 mm 1 mps 687 mmHg 14%
    17:00 +33°C° 0 mm 1 mps 687 mmHg 15%
    18:00 +31°C° 0 mm 1 mps 687 mmHg 16%
    19:00 +29°C° 0 mm 1 mps 687 mmHg 17%
    20:00 +27°C° 0 mm 2 mps 687 mmHg 18%
    21:00 +27°C° 0 mm 3 mps 688 mmHg 21%
    22:00 +26°C° 0 mm 5 mps 688 mmHg 24%
    23:00 +24°C° 0 mm 7 mps 689 mmHg 27%

    23 September, Monday

    Time Temperature Precipitation Wind Pressure Humidity
    00:00 +22°C° 0 mm 6 mps 691 mmHg 41%
    01:00 +20°C° 0 mm 5 mps 692 mmHg 56%
    02:00 +18°C° 0 mm 4 mps 693 mmHg 71%
    03:00 +17°C° 0 mm 4 mps 694 mmHg 70%
    04:00 +17°C° 0 mm 3 mps 694 mmHg 70%
    05:00 +17°C° 0 mm 2 mps 694 mmHg 70%
    06:00 +17°C° 0 mm 2 mps 694 mmHg 68%
    07:00 +16°C° 0 mm 2 mps 694 mmHg 66%
    08:00 +16°C° 0 mm 2 mps 694 mmHg 64%
    09:00 +18°C° 0 mm 2 mps 694 mmHg 59%
    10:00 +19°C° 0 mm 3 mps 693 mmHg 54%
    11:00 +20°C° 0 mm 3 mps 693 mmHg 49%
    12:00 +21°C° 0 mm 4 mps 693 mmHg 46%
    13:00 +22°C° 0 mm 4 mps 692 mmHg 44%
    14:00 +23°C° 0 mm 4 mps 692 mmHg 41%
    15:00 +22°C° 0 mm 4 mps 692 mmHg 42%
    16:00 +22°C° 0 mm 3 mps 691 mmHg 43%
    17:00 +22°C° 0 mm 3 mps 691 mmHg 44%
    18:00 +21°C° 0 mm 2 mps 691 mmHg 48%
    19:00 +19°C° 0 mm 2 mps 691 mmHg 52%
    20:00 +19°C° 0 mm 1 mps 691 mmHg 55%
    21:00 +19°C° 0 mm 1 mps 691 mmHg 57%
    22:00 +18°C° 0 mm 1 mps 691 mmHg 58%
    23:00 +16°C° 0 mm 0 mps 691 mmHg 60%
    Show more